Miscellaneous Local Product
Issued by NWS Hastings, NE

Home | Current Version | Previous Version | Graphics & Text | Print | Product List | Glossary On
Versions: 1 2 3 4 5 6 7 8 9 10 11 12 13 14 15 16 17 18 19 20 21 22 23 24 25 26 27 28 29 30 31 32 33 34 35 36 37 38 39 40 41 42 43 44 45 46 47 48 49 50
000
AXUS43 KGID 041902
MISGRI

GID CWA HOURLY WEATHER ROUNDUP
NATIONAL WEATHER SERVICE HASTINGS NE
100 PM CST SUN DEC 04 2016

NOTE: "FAIR" INDICATES FEW OR NO CLOUDS BELOW 12,000 FEET WITH NO
SIGNIFICANT WEATHER AND/OR OBSTRUCTIONS TO VISIBILITY.

...SOUTH CENTRAL NEBRASKA...

CITY           SKY/WX    TMP DP  RH WIND       PRES   REMARKS
GRAND ISLAND   SUNNY     48  31  51 W8        29.93F
HASTINGS       SUNNY     44  34  67 W9        29.95F
KEARNEY        SUNNY     46  27  46 W8        29.93F
ORD            SUNNY     48  24  39 SW9       29.89F
YORK           SUNNY     41  36  81 SW7       29.94F
AURORA         SUNNY     45  36  70 W8        29.93F
LEXINGTON      SUNNY     48  22  36 W9        29.93F
HOLDREGE       SUNNY     45  31  56 W8        29.94F
HEBRON         SUNNY     34  31  88 W9        29.98F WCI  27

...NEBRASKA PANHANDLE...

CITY           SKY/WX    TMP DP  RH WIND       PRES   REMARKS
CHADRON        SUNNY     46  15  28 SW15      29.84F
ALLIANCE       SUNNY     45  16  31 W18       29.87F
SCOTTSBLUFF    SUNNY     48  13  24 W12G21    29.87F
SIDNEY         SUNNY     47   9  21 SW22      29.91F

...WESTERN AND NORTH CENTRAL NEBRASKA...

CITY           SKY/WX    TMP DP  RH WIND       PRES   REMARKS
VALENTINE      SUNNY     46  19  34 W16       29.86F
AINSWORTH      SUNNY     47  21  36 NW14      29.87F
ONEILL         SUNNY     49  25  39 NW9       29.88F
BROKEN BOW     SUNNY     49  25  39 W14       29.89F
IMPERIAL       SUNNY     47  11  23 W14G21    29.95F
NORTH PLATTE   SUNNY     49  17  28 W14       29.93F
MCCOOK         SUNNY     49  19  30 NW12G18   29.96F

...EASTERN NEBRASKA...

CITY           SKY/WX    TMP DP  RH WIND       PRES   REMARKS
NORFOLK        SUNNY     47  28  47 W13       29.88F
SO SIOUX CITY  SUNNY     48  36  63 SW5       29.88F
TEKAMAH        SUNNY     37  32  82 SW6       29.92F WCI  32
COLUMBUS       SUNNY     45  36  70 W10       29.92F
ALBION         SUNNY     48  29  48 W6        29.89F
OMAHA EPPLEY   MOSUNNY   38  32  79 SW9       29.94F WCI  31
OFFUTT AFB     MOSUNNY   37  37 100 SW8       29.94F WCI  31
MILLARD        MOSUNNY   36  32  85 SW7       29.95F WCI  30
LINCOLN        CLOUDY    34  31  88 SW9       29.97F WCI  27
NEBRASKA CITY  MOSUNNY   38  33  84 W8        29.94F WCI  32
BEATRICE       CLOUDY    35  33  93 W8        29.97S WCI  29
FALLS CITY     CLOUDY    39  35  86 W12       29.97F WCI  32

...NORTHERN KANSAS...

CITY           SKY/WX    TMP DP  RH WIND       PRES   REMARKS
GOODLAND       SUNNY     47  10  22 VRB5      29.97F
HILL CITY      SUNNY     50  25  37 NW7       29.99F
NORTON         CLEAR     50  14  23 W8        29.96F
PHILLIPSBURG   SUNNY     46  30  53 W6        29.98F
SMITH CENTER   SUNNY     39  32  75 W6        29.99F WCI  35
BELOIT         SUNNY     39  32  75 W8        29.99F WCI  34
HAYS           SUNNY     46  31  55 W9        30.00F
RUSSELL        SUNNY     45  29  53 NW9       29.99F
CONCORDIA      SUNNY     41  35  79 W7        29.98F
SALINA         SUNNY     47  37  68 NW9       30.00F
TOPEKA         CLOUDY    38  35  89 W9        29.99F WCI  31



USA.gov is the U.S. government's official web portal to all federal, state and local government web resources and services.